Wind_Speed
40 41 42 43 43 44 44 45 45 46 47 48 49 50 51 52 53 54 54 55 56 57 57 58 58 59 59 60 60 60 59 57 56 55 52 50 53 56 57 56 58 63 70 75 74 72 73 74 74 75 71 69 70 68 66 65 63 60 57 57 57 53 49 45 43 43 42 41 42 40 40 42 40 38 36 33 32 31 29 27 24 23 23 22 20 20 20 21
40 41 42 43 43 44 44 45 45 46 47 48 49 50 52 52 53 54 55 57 58 59 59 60 61 61 62 63 63 63 62 62 60 58 56 54 54 58 60 59 59 62 68 75 77 75 74 75 76 77 75 73 71 71 70 68 66 64 61 59 57 53 49 45 43 43 44 46 44 40 40 43 43 41 39 37 35 33 31 28 26 24 24 23 22 21 20 21
39 40 41 42 42 43 44 44 45 46 47 48 50 51 52 53 54 55 56 58 59 60 61 62 63 64 65 66 67 67 66 66 63 61 61 59 59 59 62 63 62 63 67 72 78 78 76 77 77 77 78 77 74 73 73 72 69 67 65 63 57 53 51 48 46 44 44 47 46 43 41 43 44 44 43 41 39 36 33 30 27 26 26 26 25 23 21 21
39 39 40 41 41 42 43 44 45 46 47 49 50 51 53 54 55 57 58 59 60 62 63 64 66 67 69 70 70 70 70 69 68 67 66 64 63 62 62 65 65 65 67 71 77 81 79 78 79 78 79 79 77 75 75 75 72 69 68 65 58 55 54 51 49 47 46 48 49 47 45 44 45 45 44 43 42 39 34 30 28 28 29 28 26 25 23 22
39 39 39 40 40 41 42 43 44 46 47 49 50 52 54 55 57 58 60 61 63 65 66 68 70 71 72 74 74 74 74 73 72 72 70 69 68 66 64 65 67 67 68 70 75 80 81 79 80 80 80 80 79 78 76 75 75 73 70 65 61 59 55 52 51 51 50 50 50 49 48 46 45 45 46 45 43 38 34 31 30 31 30 29 28 27 25 24
38 38 38 39 39 40 41 42 44 46 47 49 51 52 54 56 58 60 62 64 66 68 70 72 74 75 76 77 78 78 78 76 75 75 74 74 72 69 67 66 68 69 69 71 74 79 83 81 81 81 80 80 80 80 78 76 77 77 73 68 65 63 58 54 53 53 53 52 51 51 50 48 45 46 47 46 43 39 36 36 36 34 32 32 30 27 26 25
36 37 37 37 38 39 41 42 44 46 47 49 51 53 55 57 59 61 64 66 68 71 73 75 77 78 79 80 80 80 79 76 75 77 77 77 75 71 69 68 68 69 70 71 73 77 82 83 81 82 82 81 80 80 79 78 78 78 76 72 68 65 61 57 55 55 56 55 52 51 53 51 48 48 48 46 43 41 41 40 39 38 36 34 31 28 28 27
34 35 35 36 37 39 40 42 44 45 47 49 51 54 56 58 60 62 65 67 70 72 74 77 78 79 80 81 81 80 78 76 75 77 79 80 77 73 71 70 70 69 71 72 73 76 81 84 83 82 83 82 80 80 80 80 79 79 77 75 72 69 65 61 60 58 56 56 54 53 53 53 52 52 50 46 43 44 44 43 41 40 38 35 31 30 30 29
32 33 34 35 36 38 40 42 43 45 47 49 52 54 56 58 60 62 64 67 69 71 73 76 77 78 80 80 81 79 74 74 75 76 80 80 78 75 72 71 71 70 71 73 74 76 80 84 84 83 84 83 81 80 81 81 81 80 77 76 76 73 69 65 64 62 57 55 55 56 54 53 53 54 53 48 45 45 45 45 43 41 39 36 33 33 32 30
31 32 33 34 36 38 39 41 43 45 47 49 51 53 55 57 59 61 63 65 67 69 70 71 72 73 73 74 75 73 68 70 74 75 76 78 77 76 73 71 71 70 72 73 74 76 79 83 84 85 84 84 83 81 81 82 82 80 78 78 79 77 74 70 67 64 62 57 54 56 56 54 54 55 54 50 47 46 46 46 45 42 40 37 36 35 33 32
30 31 32 34 35 37 39 41 42 45 46 48 50 52 54 56 57 59 60 61 62 63 63 62 62 61 61 62 63 61 62 67 69 69 70 73 75 74 73 72 71 71 72 74 74 75 78 81 84 86 85 85 85 82 81 82 82 81 81 81 81 80 78 75 70 67 66 62 55 54 55 56 58 56 52 50 50 48 47 48 47 45 42 39 39 38 35 34
29 30 32 33 35 36 38 40 42 44 46 48 50 52 54 55 55 55 56 56 55 54 52 51 49 48 49 48 46 49 56 58 57 59 63 67 70 72 72 72 71 71 71 73 75 75 77 80 83 86 86 86 85 84 83 82 83 82 83 83 82 81 81 78 73 70 69 66 60 56 56 60 61 56 50 50 52 51 50 50 50 48 45 42 41 39 38 37
28 29 31 32 34 36 38 39 41 43 45 48 50 52 53 53 52 51 50 49 47 44 42 40 39 38 39 36 34 40 46 46 46 49 54 60 65 68 69 70 70 70 70 72 74 75 76 79 82 85 87 87 86 85 85 83 83 83 83 84 84 82 82 80 76 73 71 69 65 63 63 62 59 55 53 53 54 55 53 53 52 51 49 47 44 42 40 40
27 29 30 32 34 35 37 39 41 43 45 48 50 52 52 52 50 48 45 43 40 37 35 34 33 33 33 30 29 34 37 38 39 40 46 54 60 63 66 68 67 67 68 69 70 72 74 77 81 84 87 88 86 86 85 83 83 83 83 84 85 85 82 80 78 76 74 71 69 69 69 64 58 55 54 53 55 57 56 53 51 51 50 50 49 46 43 43
27 28 30 31 33 35 37 39 41 43 46 48 51 52 51 50 48 45 40 37 35 33 31 30 30 30 29 26 27 31 32 32 32 34 39 45 52 57 61 65 66 64 65 66 64 63 66 73 78 82 85 87 86 85 85 85 84 84 84 84 85 86 83 80 79 78 76 73 72 73 71 66 61 58 55 55 57 58 59 56 51 51 52 52 52 50 46 45
26 27 29 31 33 35 37 39 41 43 46 48 50 51 50 48 46 41 37 34 33 31 30 29 29 29 27 26 26 28 29 28 28 30 33 37 43 49 57 63 65 64 62 60 56 53 54 63 73 80 81 84 85 85 84 85 85 85 85 85 84 84 83 82 81 79 77 76 75 76 73 68 64 61 57 58 59 58 58 57 54 52 52 52 52 52 50 47
26 27 29 31 32 35 37 39 41 43 45 48 50 50 49 47 43 37 34 33 32 31 29 29 29 27 26 25 25 25 26 25 25 27 29 32 36 42 53 61 63 63 59 56 51 50 51 53 64 75 79 82 84 85 86 86 86 86 85 85 84 83 82 83 82 80 78 78 78 78 75 72 68 65 61 59 58 58 58 56 54 52 51 51 51 51 51 49
26 27 29 31 32 35 37 39 41 43 45 47 49 50 48 45 40 35 32 31 32 33 30 29 29 26 24 25 24 23 24 23 23 23 26 28 31 36 46 55 60 61 59 57 52 50 53 50 52 66 75 80 84 86 88 88 86 85 85 85 85 83 82 82 83 81 79 80 80 80 79 76 72 70 68 63 60 60 60 56 52 51 51 51 50 50 50 50
26 27 29 31 33 35 36 39 40 42 45 47 48 48 47 44 38 33 27 26 31 33 32 31 29 25 23 24 22 20 21 22 21 21 21 21 24 30 39 50 56 59 59 59 56 50 53 51 45 54 68 75 81 86 87 85 83 83 83 83 84 84 83 82 84 83 81 81 81 80 80 79 76 74 72 69 66 63 62 60 55 52 51 50 50 51 51 51
26 28 29 31 33 35 37 39 40 42 44 46 47 46 44 41 35 29 21 19 28 33 33 33 29 24 23 21 20 17 17 19 19 19 18 17 19 24 33 44 51 57 59 58 56 51 51 56 48 44 56 67 74 81 83 82 81 81 82 83 84 85 84 82 82 84 83 82 81 81 80 80 79 78 76 73 71 68 65 64 62 57 53 49 48 52 54 52
27 28 30 31 33 35 37 39 40 42 43 45 46 45 44 42 38 34 25 18 26 32 31 29 26 23 21 19 18 15 12 14 17 17 17 18 20 22 28 39 47 54 57 56 57 53 49 58 58 45 45 55 63 72 78 80 81 80 81 81 83 84 84 84 82 82 83 83 82 80 80 81 80 81 80 77 76 73 69 66 65 62 59 55 50 49 52 52
28 29 31 32 33 35 37 38 40 41 43 44 45 45 44 43 41 40 34 26 27 29 26 24 23 21 21 20 18 14 12 13 15 16 15 16 18 21 25 33 42 48 53 54 57 57 53 56 59 54 49 46 51 63 74 79 80 79 79 79 81 82 82 83 83 81 81 82 83 82 81 82 81 81 81 81 79 76 73 70 67 65 63 61 57 52 51 51
28 29 31 32 34 35 37 38 40 41 42 43 44 45 43 42 40 39 37 33 29 25 21 22 21 19 19 19 17 15 13 13 14 14 12 12 15 18 23 29 34 41 49 53 54 57 57 55 53 54 54 48 44 52 66 76 81 80 79 79 79 80 80 80 81 81 81 81 83 84 84 84 82 82 82 81 81 79 76 73 70 67 66 65 63 59 56 56
29 30 31 33 34 36 37 38 40 41 42 43 43 44 43 41 40 39 37 34 29 24 21 20 19 17 17 17 15 13 12 12 13 12 9 10 11 13 20 25 30 36 44 49 50 52 54 55 54 51 52 51 45 45 54 68 79 81 80 80 79 78 77 79 79 80 81 81 81 83 86 88 86 85 84 82 82 81 79 77 74 71 69 68 67 64 63 61
29 30 31 33 34 35 37 38 39 41 41 42 43 43 43 41 40 39 37 35 30 24 20 17 16 16 16 17 14 12 11 10 10 10 8 8 8 9 16 21 26 33 39 43 45 47 49 52 54 49 45 49 50 45 45 55 69 78 80 79 79 76 74 75 76 76 78 80 81 80 84 89 89 87 86 84 83 83 81 80 78 75 73 71 70 68 66 65
29 30 31 32 34 35 37 38 39 40 40 41 42 42 42 41 39 38 37 35 28 20 17 15 14 14 15 16 11 10 13 10 8 7 6 8 8 8 14 21 26 30 33 37 41 44 45 49 53 49 41 43 50 48 43 46 56 68 77 78 76 75 72 72 72 72 74 76 79 80 83 87 88 89 88 85 84 84 83 82 81 78 76 74 72 69 67 67
28 30 30 31 33 34 36 38 38 39 40 41 41 41 41 40 39 38 37 35 28 19 16 14 13 14 15 15 11 10 12 10 7 5 4 7 11 11 14 22 27 28 27 30 37 41 42 45 49 50 43 41 47 49 45 46 50 56 65 70 73 73 72 71 69 70 73 74 75 76 80 84 87 87 88 87 86 85 84 83 83 81 78 76 74 72 69 68
28 29 30 31 32 34 35 37 38 39 40 40 40 40 40 39 38 37 36 36 31 23 18 13 13 15 15 15 13 11 11 9 6 5 5 6 11 12 12 20 27 29 27 27 32 38 43 46 47 49 45 39 41 45 44 45 51 52 53 59 67 71 72 71 67 67 69 71 73 72 71 77 85 85 84 86 87 87 86 83 82 81 79 78 76 75 73 70
28 28 30 31 32 33 34 36 37 38 39 39 40 39 39 39 38 37 36 35 34 26 18 13 12 13 14 15 14 12 11 9 7 6 8 7 10 11 9 15 26 32 30 26 28 34 41 46 49 50 46 38 35 41 43 43 46 50 50 52 60 68 71 69 67 66 67 69 74 73 67 70 82 85 82 83 86 87 87 84 82 81 79 78 77 76 75 73
27 28 29 30 31 33 34 35 36 37 38 39 39 39 38 38 38 37 36 35 34 28 19 14 13 12 12 13 13 13 12 10 8 7 9 9 11 13 10 11 21 31 33 28 25 29 38 44 47 50 50 43 37 38 42 41 40 43 47 50 53 59 64 67 67 67 68 72 75 75 70 71 81 87 83 81 83 85 86 84 83 82 80 79 77 77 76 75
26 27 28 29 30 32 33 34 36 37 38 38 38 38 37 37 38 37 37 36 34 30 22 15 12 11 11 11 11 11 11 9 8 7 8 9 9 13 12 11 16 26 33 31 27 27 35 42 42 45 52 50 42 38 37 36 36 39 43 46 49 52 56 61 64 66 70 76 77 75 71 70 80 89 87 81 79 80 81 82 82 83 83 81 79 77 76 74
26 26 27 28 29 31 32 33 35 36 37 38 38 38 37 37 37 36 36 35 33 32 26 17 12 11 11 11 10 10 10 9 7 6 7 7 8 11 12 11 12 20 28 32 31 27 30 38 39 41 49 52 48 43 36 30 31 37 40 41 46 49 50 56 62 65 69 73 76 74 70 70 79 86 87 84 81 78 78 79 79 80 82 83 82 80 78 76
25 25 26 28 28 30 31 32 34 35 36 37 37 37 37 36 36 36 36 34 33 33 30 24 18 14 11 10 9 8 9 9 7 6 7 6 7 10 14 14 12 15 21 27 31 30 30 33 36 39 46 52 54 49 39 30 27 33 37 36 41 47 49 53 59 64 69 72 72 69 67 71 78 82 83 83 82 81 79 77 76 76 78 81 82 81 80 79
25 25 25 27 28 29 30 31 33 34 35 36 37 37 37 36 36 36 35 33 32 32 31 28 23 17 13 11 8 7 7 7 7 7 6 7 7 8 12 17 16 14 16 21 27 32 32 32 32 36 42 51 59 55 46 39 33 31 34 34 35 40 46 50 53 57 66 71 70 66 66 69 76 81 82 81 80 80 80 80 78 75 75 77 78 79 79 80
24 24 25 26 27 28 29 30 32 33 35 35 36 36 36 36 35 35 35 33 31 30 28 28 26 21 17 15 11 8 7 6 7 7 6 6 8 8 8 12 16 15 15 18 24 30 34 34 34 34 37 46 58 58 52 49 42 32 33 37 35 34 37 42 45 47 52 61 67 68 68 68 71 76 78 77 78 78 79 80 79 78 77 76 76 76 77 77
24 24 25 25 26 27 28 30 31 32 34 35 35 35 35 35 35 35 35 34 33 31 28 27 26 23 19 17 14 10 8 7 6 6 7 6 7 7 6 8 12 14 16 18 22 27 32 35 36 35 34 40 50 55 53 51 48 40 34 36 36 36 36 36 38 38 40 48 58 64 68 67 68 72 73 73 75 76 76 77 76 76 76 76 76 76 75 75
24 24 24 25 25 26 27 29 30 31 33 34 34 35 35 34 34 34 34 34 34 34 31 29 27 25 22 18 15 12 9 8 6 6 7 7 7 7 6 6 8 11 16 18 20 25 30 34 37 37 36 37 41 50 52 48 46 46 41 35 33 37 40 37 36 37 39 44 48 52 59 64 68 75 76 73 73 75 76 76 76 76 75 74 75 75 75 74
24 24 25 25 25 26 27 28 29 30 32 33 34 35 35 35 34 34 34 34 33 34 33 31 29 28 25 22 19 14 10 8 7 7 7 8 8 8 6 6 8 9 13 17 20 24 28 32 35 38 40 39 38 44 51 49 44 44 44 40 36 35 38 40 39 39 40 42 42 43 48 54 62 72 76 73 71 72 74 75 75 75 75 74 74 74 73 72
25 25 25 25 26 26 26 27 28 29 31 32 33 34 34 34 34 34 33 33 33 33 32 31 30 29 27 25 22 18 14 10 8 8 9 9 9 9 9 8 9 9 11 15 19 23 26 30 33 36 40 43 40 40 46 49 45 43 44 43 41 39 37 38 41 40 40 42 41 40 42 47 53 59 63 66 67 67 69 72 72 72 72 71 72 73 72 72
25 25 25 25 25 25 26 27 27 28 29 31 31 33 33 33 34 33 33 33 33 33 32 31 30 29 27 25 23 20 17 15 10 9 10 10 10 11 12 12 10 10 11 13 17 21 24 28 32 34 37 42 43 42 43 45 44 44 46 45 44 45 43 42 42 41 41 44 43 40 38 39 42 46 48 53 58 60 63 67 70 73 72 71 71 71 70 71
26 26 25 25 25 25 25 26 26 27 28 30 30 32 33 32 32 33 33 33 32 32 32 32 30 29 27 25 24 21 17 17 15 11 11 12 13 14 15 15 15 13 13 14 16 19 22 26 29 32 35 38 42 45 46 45 44 44 47 47 45 45 47 48 48 46 44 46 46 44 41 34 30 37 43 45 48 49 52 56 62 68 71 70 71 72 71 70
27 26 25 25 25 25 25 25 26 26 27 29 30 30 31 31 31 32 32 32 31 32 32 31 30 29 28 25 24 22 18 16 17 16 13 13 16 17 17 18 18 17 17 16 17 19 21 24 27 31 34 36 39 44 47 48 47 45 46 49 48 45 45 47 49 50 50 51 49 50 51 41 27 28 36 41 45 45 46 49 53 59 64 64 66 69 70 71
27 27 26 26 26 25 25 25 25 25 26 27 29 29 30 30 30 31 31 31 31 31 31 31 30 30 28 26 24 23 21 16 15 17 17 15 15 17 18 20 20 20 21 21 20 21 23 25 26 28 32 34 37 41 45 48 49 48 47 49 49 48 48 47 48 48 50 53 51 51 54 49 39 33 32 35 40 44 45 47 49 52 56 59 62 66 68 71
26 27 26 26 26 26 26 26 26 26 25 27 28 28 29 30 30 30 31 31 30 30 30 30 30 29 29 28 25 24 22 19 15 15 17 17 16 17 17 18 21 22 24 25 24 24 24 25 26 27 29 31 34 37 42 45 47 49 49 50 50 50 49 50 51 51 51 53 52 51 52 50 47 44 38 35 38 42 44 46 46 47 50 53 58 62 64 67
26 26 26 26 26 26 26 26 27 26 26 27 28 28 29 30 31 31 30 30 30 29 29 29 29 29 29 28 27 25 24 22 18 16 16 15 15 16 18 18 19 21 24 27 28 28 28 27 27 28 28 29 30 32 37 43 46 48 49 51 53 53 52 53 54 56 57 56 55 54 53 50 49 48 45 42 42 44 45 46 45 45 47 48 50 55 59 62
26 26 26 26 27 26 26 27 27 27 27 27 27 28 28 29 31 31 31 30 30 29 29 28 29 29 29 28 27 26 25 25 22 18 16 14 14 14 16 18 19 20 21 24 27 30 31 31 30 31 32 32 31 31 34 40 45 48 49 51 53 54 55 56 57 58 58 58 61 61 58 54 50 51 52 51 48 47 46 46 45 45 46 45 43 47 52 57
27 27 26 27 27 27 27 27 28 28 28 27 28 28 28 28 29 31 31 31 31 30 28 28 29 29 29 29 27 26 26 25 23 21 19 16 15 14 15 18 20 20 20 21 23 25 30 33 33 34 36 35 35 35 36 39 44 47 49 51 52 52 54 57 61 62 60 62 66 64 61 62 58 52 53 54 53 51 50 49 48 47 47 46 44 44 45 49
27 27 27 27 27 27 28 28 28 29 28 28 28 28 29 29 29 30 31 31 32 32 29 28 29 29 30 30 28 28 27 25 24 23 22 20 18 16 16 17 20 22 22 23 23 23 26 27 28 33 38 38 38 38 38 41 44 46 49 51 52 53 54 56 60 63 63 66 69 65 63 67 67 60 54 51 52 55 54 53 51 49 48 47 48 46 42 41
27 27 27 27 27 27 28 28 29 29 29 29 29 29 29 29 29 30 31 30 32 33 31 30 29 29 30 31 30 29 29 27 25 24 24 22 20 19 17 16 19 21 23 25 26 26 27 25 24 28 32 35 37 38 40 43 45 47 49 50 52 54 55 57 60 62 64 66 68 68 67 68 68 69 64 54 49 53 56 57 56 54 51 49 49 49 46 43
28 28 28 28 28 28 29 29 30 30 30 30 30 30 30 30 30 31 32 31 32 33 33 31 30 30 31 32 32 31 31 30 28 27 26 24 22 22 20 17 18 20 22 24 27 28 30 29 27 29 30 28 28 31 36 40 46 51 53 52 53 54 55 56 58 59 62 64 65 68 73 72 67 68 70 63 55 54 55 57 58 58 56 55 53 52 50 49
29 29 29 29 30 30 31 31 31 32 31 31 31 31 31 31 31 31 32 32 33 33 33 32 31 30 31 32 33 32 32 32 31 30 30 28 26 25 24 21 21 21 21 23 26 29 31 31 31 34 34 28 26 31 32 34 45 52 53 52 53 55 57 57 58 59 60 62 64 67 73 74 69 67 70 68 63 60 59 58 59 60 60 60 60 58 56 54
29 29 30 31 31 32 32 33 33 34 34 32 32 32 32 32 31 32 32 33 34 34 34 33 33 31 31 32 32 32 32 32 32 32 32 32 30 29 28 26 25 24 23 24 27 28 31 32 33 36 38 33 32 34 34 37 39 34 33 41 48 52 57 59 59 59 58 59 63 66 69 71 70 71 73 71 68 66 64 62 60 61 62 63 63 63 62 60
Wind_Direction
281 281 281 280 280 279 279 279 278 278 278 278 277 276 276 275 275 275 275 276 276 276 275 274 273 272 272 272 272 271 271 270 270 270 268 265 259 254 251 248 244 239 235 234 232 231 233 234 233 232 231 231 230 227 227 227 227 229 228 227 227 225 223 222 222 224 224 226 230 231 231 231 230 231 230 225 224 224 223 222 219 221 226 226 223 222 219 219
283 283 282 282 281 281 280 280 280 280 280 279 279 278 278 277 276 276 276 276 276 276 276 275 274 273 273 272 272 271 271 270 269 270 269 265 259 254 250 247 245 240 235 233 232 230 231 233 232 232 231 230 229 228 227 227 227 227 227 227 226 226 225 224 224 224 224 227 230 229 229 230 229 228 228 226 225 225 224 222 220 221 225 227 226 224 222 221
285 285 284 284 283 282 282 282 282 282 282 282 281 280 280 279 278 278 278 277 277 277 276 276 275 274 273 272 272 271 270 270 269 269 268 265 260 253 249 246 245 242 237 233 231 230 228 231 232 231 231 230 229 228 228 228 227 227 227 226 224 225 226 225 225 224 223 225 228 228 228 230 230 228 227 226 224 224 223 221 220 221 223 225 226 226 224 223
287 287 286 286 285 285 285 285 285 285 285 284 283 283 282 282 281 281 280 279 279 278 277 276 275 274 273 272 271 270 270 269 269 268 266 264 260 254 248 245 244 242 238 233 230 230 228 229 231 231 230 230 229 229 228 228 228 227 226 225 223 225 226 224 225 225 224 225 226 226 226 227 231 232 229 227 225 223 223 222 222 223 223 223 225 226 225 225
288 288 288 288 288 288 288 288 288 287 287 287 286 286 285 285 284 283 283 282 281 280 278 277 276 274 273 272 270 269 269 268 267 266 265 262 259 254 249 244 242 241 239 235 230 229 228 227 229 230 230 229 229 229 228 228 228 228 227 225 224 225 225 224 226 226 227 227 226 225 225 225 228 233 232 229 228 224 223 222 222 223 224 223 223 225 226 226
289 290 290 290 290 290 291 291 290 290 290 290 289 289 288 288 287 287 286 285 283 282 280 278 276 274 272 271 270 268 267 267 266 265 263 260 257 253 249 244 241 240 239 236 232 229 227 227 227 229 230 229 229 229 229 228 228 229 227 225 225 225 223 223 225 226 227 228 228 227 226 224 224 230 233 230 228 225 222 221 221 222 222 222 222 223 226 227
291 291 291 292 293 293 294 294 294 294 294 293 293 293 292 292 291 290 288 287 285 283 281 279 277 275 273 271 269 267 266 265 264 262 260 257 254 251 248 245 240 239 238 236 233 229 227 226 226 227 229 229 228 229 229 228 228 228 226 225 226 225 223 223 224 226 227 228 228 227 227 226 224 227 231 230 227 225 222 221 222 223 223 223 222 222 225 226
292 293 294 295 296 297 297 298 298 298 298 298 298 297 296 295 294 292 290 288 286 284 281 279 277 275 273 271 268 266 265 263 260 258 256 254 252 249 246 244 241 237 237 236 232 229 226 225 225 226 228 229 228 228 228 228 228 228 226 225 226 226 224 223 224 225 226 228 228 228 228 227 226 226 229 228 227 226 224 222 223 224 224 224 222 223 225 226
294 296 297 299 300 301 301 301 302 302 302 302 301 301 300 298 296 294 291 289 286 284 281 279 277 275 272 270 268 266 264 260 256 255 254 252 249 247 243 242 240 236 235 235 232 228 226 224 224 225 226 227 227 226 227 227 228 228 227 226 226 226 225 223 223 224 225 227 228 230 229 228 228 227 227 228 227 228 227 225 223 224 225 224 223 225 226 227
298 300 301 303 304 304 304 305 305 306 306 306 305 305 304 302 299 296 293 290 287 285 282 280 277 275 273 270 268 265 262 258 255 251 249 248 247 245 242 239 238 235 233 233 232 229 226 224 223 224 224 225 226 225 225 227 227 228 227 226 226 225 225 225 222 222 225 224 225 229 229 229 230 229 226 226 226 227 228 227 225 225 225 224 224 226 226 227
302 304 306 307 307 307 308 308 308 309 310 311 311 311 310 307 304 301 297 293 290 287 284 282 280 278 276 272 270 267 261 257 253 249 246 245 244 242 240 237 234 233 231 231 231 229 226 224 223 223 223 223 225 225 224 225 226 227 227 227 226 225 225 224 222 221 224 222 222 227 228 228 229 229 227 225 225 224 224 226 226 225 224 224 224 225 226 227
307 308 310 310 310 310 311 311 312 314 316 318 319 318 316 313 310 306 302 298 294 291 289 287 285 283 280 278 276 270 262 257 252 248 245 243 241 239 237 235 232 230 229 229 229 228 225 223 223 223 223 222 223 224 224 224 225 226 227 227 226 226 225 223 221 220 222 222 220 224 226 226 226 227 227 227 227 225 223 224 225 225 223 225 227 227 227 228
311 312 312 313 313 313 314 315 318 321 323 325 326 325 322 319 315 312 307 303 299 297 296 294 292 290 287 286 284 274 267 262 256 250 244 240 237 235 234 232 230 228 226 227 227 227 225 223 223 222 222 222 222 223 224 223 224 224 226 227 226 227 225 223 222 221 222 221 221 224 225 224 224 224 226 227 228 227 226 225 226 226 225 226 229 230 230 230
314 315 315 315 316 316 318 321 324 328 329 331 331 330 328 325 322 318 314 308 304 302 301 299 298 296 294 294 288 277 272 267 262 254 245 239 235 232 230 229 228 227 224 224 226 226 225 224 223 222 221 221 221 222 224 223 223 223 224 226 226 226 224 222 223 222 222 221 221 225 225 222 222 223 224 228 230 229 227 226 226 227 228 228 231 232 232 232
317 318 318 319 319 320 323 327 330 333 335 336 336 335 333 331 329 325 321 314 308 305 303 302 300 299 301 301 292 283 276 271 266 259 250 242 236 231 228 226 225 225 224 221 223 225 226 225 224 223 222 221 220 220 222 223 223 222 223 225 226 226 224 223 224 224 223 223 223 226 225 219 219 222 223 227 230 230 229 228 228 230 231 231 231 231 230 231
319 321 322 322 323 326 329 332 335 337 339 339 339 339 338 337 336 333 330 322 312 307 306 304 302 302 306 305 296 290 283 275 268 262 255 247 240 232 226 224 222 223 223 220 219 218 222 227 225 223 222 221 221 220 221 222 222 222 222 224 226 227 226 224 224 224 223 224 225 226 225 220 218 219 221 225 227 230 232 231 229 229 231 232 233 231 227 228
322 324 325 326 328 331 334 337 339 341 342 342 342 342 342 343 342 340 337 329 319 313 310 308 306 306 307 304 300 296 289 281 274 267 259 251 244 234 226 223 221 220 220 217 215 212 213 224 226 223 222 221 221 220 220 221 221 222 222 223 225 227 227 226 225 225 224 224 226 227 226 222 219 218 219 223 225 228 232 233 231 230 231 232 235 233 228 226
327 328 329 331 333 335 338 341 342 343 344 345 345 345 346 347 348 346 343 337 328 320 315 309 307 307 303 300 302 300 294 287 281 274 265 256 248 239 228 223 220 217 216 215 213 211 209 217 227 225 223 221 220 220 220 220 221 223 224 225 225 225 226 226 226 226 226 227 227 227 226 224 222 221 220 221 223 225 229 232 231 230 231 233 235 236 232 228
331 332 333 335 337 339 341 343 345 346 346 347 348 348 349 349 351 348 342 337 327 318 316 313 310 308 302 300 305 305 300 292 287 281 271 260 253 245 231 223 221 216 215 216 214 214 210 210 222 229 225 222 221 222 221 220 221 224 225 226 226 225 225 226 226 225 226 229 229 228 227 225 226 225 223 223 224 224 226 228 227 226 228 232 235 236 235 232
335 336 337 339 341 342 344 346 347 348 348 349 350 350 350 350 351 348 340 328 320 318 320 319 317 313 303 302 306 308 306 295 288 283 272 255 245 242 230 223 222 217 214 214 212 212 211 207 211 225 227 224 222 223 223 221 221 222 224 225 225 225 224 224 226 226 226 229 230 230 228 227 228 228 227 226 225 226 226 226 227 225 224 226 231 235 235 235
338 339 340 341 343 345 346 348 349 350 350 351 352 352 351 349 350 349 347 332 318 320 325 322 319 313 304 303 304 305 303 289 283 281 275 261 243 232 225 221 221 218 214 213 211 209 210 208 206 212 222 223 222 222 223 222 221 222 224 225 224 225 224 224 225 226 227 229 230 231 230 228 228 230 231 229 227 226 226 226 227 228 227 225 228 232 234 235
341 342 343 344 345 347 348 349 350 351 351 352 353 353 353 351 350 349 350 345 326 323 330 327 318 314 311 309 306 302 294 285 280 278 276 270 252 233 224 221 220 217 213 212 212 210 210 209 207 210 215 219 223 222 221 221 221 222 224 225 225 225 225 225 225 226 226 228 229 230 231 230 228 230 233 233 231 228 227 228 229 229 229 229 229 231 233 233
344 345 346 346 347 348 350 351 351 352 353 354 354 355 355 353 352 350 349 346 335 328 330 325 318 317 318 317 316 310 298 292 287 281 276 270 260 236 223 222 220 215 212 211 211 213 212 209 208 212 214 214 222 226 223 221 220 221 223 224 225 225 226 226 226 227 228 229 229 229 231 230 230 231 233 234 233 231 229 229 230 230 229 230 231 232 233 234
345 346 348 349 349 349 351 352 352 353 354 355 356 356 356 355 353 352 350 346 339 332 325 319 317 317 322 329 332 326 312 301 295 290 278 261 259 240 222 221 216 211 211 211 212 214 214 212 211 215 216 213 217 227 229 224 221 221 222 223 224 225 227 227 227 228 230 231 230 229 231 230 229 231 231 232 233 233 231 230 230 231 229 229 230 231 232 234
346 347 349 350 350 351 351 352 354 354 355 356 357 357 357 357 355 353 352 348 341 334 327 321 321 319 321 329 337 345 340 323 306 296 270 247 254 247 224 216 210 207 208 209 212 215 213 212 212 214 218 215 214 221 230 230 225 223 223 223 223 224 227 228 228 229 231 233 231 231 233 231 229 231 231 231 232 232 232 232 231 231 230 230 230 230 231 232
347 348 349 350 351 352 352 354 355 355 355 357 358 358 358 359 357 354 354 352 346 341 335 327 325 324 322 325 336 351 349 342 326 306 263 235 235 236 221 210 206 205 206 208 213 216 212 211 212 213 217 217 214 216 224 231 229 226 224 224 224 225 226 227 229 230 231 232 231 233 237 234 230 231 232 231 232 231 231 233 233 232 232 231 231 232 232 233
347 348 349 350 351 352 353 354 355 356 356 358 359 359 360 360 358 356 356 356 355 349 339 332 330 332 329 329 337 344 346 352 344 319 279 239 225 223 216 207 203 199 200 208 215 217 212 209 211 213 214 215 215 216 220 229 232 228 226 226 226 227 227 228 230 231 231 231 232 233 238 236 231 230 232 233 233 232 231 232 233 233 233 232 232 233 233 234
347 347 348 349 350 352 353 354 355 357 357 358 359 1 1 1 360 359 359 359 360 353 343 339 337 340 339 334 340 347 345 347 333 294 287 259 225 222 217 207 203 195 194 204 212 215 212 208 209 210 209 209 213 216 218 228 233 230 228 228 227 228 229 229 230 232 232 233 233 232 235 238 233 229 230 232 234 234 232 231 232 233 235 234 234 234 235 235
347 347 348 349 349 351 354 354 355 357 357 358 360 1 1 2 1 1 1 2 3 359 349 341 337 344 346 337 340 351 347 337 328 294 280 264 227 224 220 208 206 200 200 205 209 213 210 209 213 214 209 205 209 215 217 225 233 231 231 231 229 229 230 230 231 232 232 234 234 231 232 236 235 230 229 231 232 234 234 232 231 233 235 236 236 237 237 237
346 347 348 348 349 350 352 354 355 357 358 359 0 1 2 3 3 2 3 5 6 3 353 340 335 339 344 340 339 347 350 342 336 316 290 269 235 225 225 218 210 208 211 212 212 213 209 209 214 216 214 210 209 214 217 223 232 232 232 232 230 231 232 232 233 233 233 234 233 231 231 235 236 232 230 230 231 233 234 234 233 233 234 236 237 238 238 238
345 346 347 348 348 349 351 353 354 356 358 359 0 1 2 3 4 4 5 5 7 8 2 344 333 334 331 329 335 345 350 348 341 326 303 279 240 222 223 226 219 216 218 219 218 216 210 210 213 214 214 213 209 208 210 214 225 231 232 232 232 233 233 233 234 234 235 236 235 232 232 236 237 233 231 232 232 231 233 234 234 234 235 236 237 238 239 239
343 345 346 348 348 349 350 351 353 354 357 359 0 2 2 4 5 5 6 5 5 10 11 359 341 337 332 325 333 344 344 344 343 333 315 288 245 227 227 229 225 220 220 222 222 218 211 211 213 212 212 210 206 207 210 208 215 227 232 234 234 234 235 235 233 233 236 238 237 236 235 236 237 234 231 232 233 232 232 233 233 234 235 236 237 238 239 239
341 343 345 346 347 348 349 351 352 353 355 358 360 1 3 3 4 5 7 7 5 7 11 9 355 342 341 336 332 338 339 338 340 339 330 304 264 243 243 247 247 231 222 222 221 219 216 214 214 214 210 207 206 210 215 215 215 221 225 230 236 236 237 239 237 236 237 237 238 239 238 238 238 236 234 233 233 234 234 234 232 232 234 236 237 238 239 239
339 342 343 345 347 347 348 350 350 351 354 356 359 1 2 3 3 4 6 8 7 6 7 10 5 351 344 342 333 325 328 329 331 342 343 317 291 266 253 252 256 250 233 225 221 220 219 217 216 216 213 209 211 216 221 222 222 219 214 219 230 235 239 242 242 242 241 239 239 241 240 240 239 236 236 235 234 235 236 236 235 233 233 235 237 238 239 239
338 340 342 344 346 346 347 348 349 350 352 355 357 360 2 3 3 3 5 6 9 9 7 8 10 4 350 344 340 326 314 312 316 325 335 324 302 286 268 254 252 254 247 234 227 222 219 218 217 217 216 213 215 221 224 223 222 218 211 213 219 227 237 243 245 247 246 243 242 242 242 244 242 239 238 239 238 237 237 238 238 236 234 234 236 237 239 240
337 339 340 343 345 346 346 347 348 349 351 353 355 358 0 2 2 2 3 5 7 10 11 9 11 11 1 351 346 336 319 309 310 309 306 310 307 295 285 267 253 249 248 242 236 228 221 220 220 217 217 216 217 222 223 223 225 222 216 213 214 219 226 236 244 247 248 247 245 244 244 245 246 243 240 241 241 240 239 240 240 239 238 237 236 237 238 240
337 338 339 341 343 345 345 346 347 348 350 351 352 355 358 360 1 2 1 3 5 7 11 11 10 13 13 6 357 345 327 312 309 303 288 286 298 299 291 282 265 249 245 244 243 236 227 223 223 220 220 221 221 221 221 225 230 229 223 217 214 218 220 224 234 240 244 250 251 249 247 246 246 244 242 241 242 242 240 241 242 242 241 240 238 238 239 241
339 339 339 340 342 344 344 345 346 347 348 349 351 352 355 357 359 1 1 2 3 4 7 10 10 11 13 14 9 356 339 317 300 292 283 275 282 288 286 282 273 259 250 244 244 243 235 228 225 224 226 226 225 222 219 224 232 233 230 228 227 229 227 225 230 233 237 245 251 252 251 248 246 245 245 243 244 245 244 243 244 245 245 244 242 241 239 240
340 340 340 340 341 342 343 343 344 345 345 347 349 350 352 354 356 359 360 0 2 2 4 7 8 9 11 12 13 7 355 337 307 287 282 274 272 275 272 271 271 266 259 250 246 246 241 234 229 228 232 231 229 227 223 225 232 234 234 235 238 240 238 234 234 235 236 241 247 252 255 252 248 246 247 247 246 247 247 246 247 247 247 246 246 244 242 241
341 340 340 340 340 340 341 341 343 344 344 344 346 347 349 351 353 355 357 358 360 1 1 4 5 8 10 9 11 12 4 354 335 299 283 276 268 266 264 263 267 268 264 258 253 250 246 240 232 229 234 236 233 232 230 231 235 236 235 238 241 242 242 242 241 238 240 243 244 247 252 254 252 247 245 246 247 247 247 247 248 248 248 248 248 247 245 243
341 340 340 340 339 340 339 340 341 342 342 342 344 345 346 348 350 351 354 356 357 358 359 1 2 4 8 7 8 12 7 358 349 327 298 281 269 265 265 262 262 263 262 261 259 258 254 248 239 233 234 236 237 236 235 236 239 239 238 239 242 243 243 245 246 242 244 246 244 243 244 243 248 249 243 241 243 243 245 246 246 247 248 249 249 249 249 247
342 341 341 340 340 340 339 338 340 340 340 340 342 343 343 344 346 347 350 352 354 355 356 358 359 0 3 5 5 8 8 358 349 345 330 302 280 271 269 266 263 262 261 260 260 262 262 256 247 239 236 236 237 238 238 239 241 243 243 242 243 245 244 244 246 245 246 248 246 247 245 234 229 242 244 240 239 239 242 244 243 244 245 247 248 248 249 248
342 342 341 341 340 340 339 338 338 338 339 338 339 341 340 341 342 343 346 348 350 352 353 354 356 356 358 1 360 2 6 2 351 346 343 331 308 291 280 272 267 264 261 260 259 261 264 263 257 249 242 239 239 239 239 241 244 245 246 244 244 245 244 243 244 243 245 247 246 249 249 237 223 226 234 237 239 240 241 243 244 244 243 243 245 246 247 248
342 342 342 342 341 340 339 337 336 337 338 337 337 338 339 338 339 340 342 344 346 349 350 350 351 352 353 356 356 355 358 3 359 346 343 341 330 319 307 289 276 269 264 262 261 260 263 266 265 260 252 246 243 242 241 242 244 245 245 245 245 245 245 244 243 242 243 244 244 247 249 240 230 227 227 229 233 236 239 241 243 245 244 243 244 246 247 248
341 342 343 342 341 341 339 337 337 337 337 336 335 336 337 337 337 337 338 339 341 344 346 346 346 348 349 350 352 351 349 354 358 352 347 344 335 328 322 312 298 284 273 268 265 263 263 265 267 266 261 254 248 246 246 245 244 244 244 245 246 247 247 247 245 244 244 244 243 245 247 242 235 231 229 229 230 232 235 239 240 244 247 246 245 245 245 245
338 340 342 342 341 341 339 337 337 336 336 335 333 333 334 333 333 334 334 335 336 338 341 342 341 342 344 345 348 347 344 347 350 348 346 343 335 325 316 313 308 299 291 282 274 269 266 265 265 265 263 259 254 250 250 250 247 245 244 245 247 248 249 249 248 246 245 246 243 243 245 243 236 233 234 236 235 233 234 238 241 244 246 246 246 247 247 246
335 337 339 340 340 340 339 337 336 336 336 334 332 331 331 331 330 329 330 331 332 333 335 336 336 337 338 340 342 342 341 343 344 340 337 334 331 323 313 307 303 303 302 296 289 282 273 266 265 263 261 261 259 255 254 254 252 249 247 246 246 248 250 251 250 248 248 249 246 243 245 245 238 235 239 242 241 238 235 237 241 244 244 244 244 247 249 250
333 334 335 336 338 338 337 336 335 335 335 333 332 331 329 329 328 325 326 327 328 330 332 331 331 333 333 334 336 337 338 340 340 336 333 332 328 321 314 306 302 302 301 298 298 294 285 279 274 268 264 262 260 258 257 257 256 253 252 249 248 249 251 252 252 251 251 252 250 245 245 246 242 237 239 244 246 244 241 239 240 242 243 241 242 244 245 246
330 331 332 332 334 334 334 334 332 332 333 332 332 331 329 328 328 325 325 325 324 325 329 328 327 329 329 328 331 333 333 335 336 332 329 330 328 321 315 305 299 298 294 293 294 293 293 295 290 279 272 266 263 262 260 260 258 256 255 254 252 251 252 253 254 253 253 255 254 249 247 247 244 240 239 241 245 246 245 244 243 243 243 242 241 241 239 236
328 329 330 331 331 331 331 331 329 329 330 329 330 331 329 327 326 325 324 325 322 321 324 325 324 325 324 324 327 330 329 328 329 328 325 326 326 320 317 311 300 294 291 289 288 286 288 291 290 286 282 278 275 272 268 265 263 259 256 256 256 255 255 255 255 255 256 257 256 254 251 248 245 242 240 240 242 244 245 246 245 244 245 245 244 243 240 237
327 328 329 330 330 330 330 329 327 326 327 327 328 328 326 325 324 322 322 322 321 320 321 322 322 322 320 320 323 324 323 323 324 323 322 323 323 319 316 314 305 298 295 289 285 283 282 284 284 281 284 291 287 278 276 272 265 262 262 261 260 260 259 258 257 257 258 259 258 257 255 251 247 244 242 240 240 242 243 245 246 246 246 247 247 246 243 241
326 328 329 329 329 330 329 327 327 325 325 326 326 324 323 323 322 320 319 318 317 318 319 319 320 320 318 317 318 318 318 318 319 318 318 318 318 316 315 313 309 304 299 289 285 284 282 282 281 277 281 290 286 279 279 274 270 279 285 272 263 259 257 256 257 258 259 261 261 259 258 255 251 247 244 242 240 240 241 242 244 245 246 246 247 247 247 245
Height
5734 5734 5733 5732 5731 5730 5729 5728 5727 5726 5725 5724 5723 5722 5721 5720 5719 5718 5717 5716 5715 5715 5714 5714 5713 5713 5713 5713 5713 5714 5717 5720 5723 5725 5730 5731 5730 5729 5729 5730 5732 5734 5735 5736 5742 5747 5748 5752 5755 5757 5762 5766 5769 5775 5777 5777 5779 5780 5783 5785 5787 5792 5797 5803 5807 5809 5811 5809 5807 5812 5815 5814 5816 5818 5820 5822 5822 5823 5825 5828 5831 5831 5832 5833 5834 5834 5835 5836
5730 5728 5727 5726 5725 5724 5723 5722 5721 5720 5719 5718 5717 5716 5715 5714 5713 5712 5711 5709 5708 5707 5706 5706 5705 5705 5704 5704 5704 5706 5709 5711 5714 5719 5721 5722 5721 5719 5719 5721 5722 5724 5726 5728 5733 5737 5741 5742 5745 5749 5754 5758 5763 5768 5769 5771 5773 5774 5778 5780 5783 5790 5796 5801 5804 5805 5806 5805 5805 5808 5810 5810 5812 5814 5815 5817 5819 5820 5823 5826 5828 5830 5830 5831 5832 5832 5833 5834
5725 5724 5722 5721 5720 5719 5718 5717 5716 5714 5713 5712 5711 5709 5708 5707 5705 5705 5703 5702 5701 5699 5699 5698 5697 5696 5695 5695 5695 5698 5700 5701 5706 5710 5711 5711 5710 5709 5710 5711 5713 5715 5717 5721 5724 5727 5732 5734 5735 5742 5746 5750 5756 5760 5762 5765 5767 5769 5771 5773 5780 5788 5792 5796 5799 5801 5802 5802 5803 5805 5806 5807 5808 5809 5811 5813 5815 5816 5819 5823 5826 5827 5828 5829 5830 5831 5832 5832
5720 5719 5718 5716 5715 5714 5713 5712 5710 5709 5707 5706 5704 5703 5701 5699 5698 5697 5695 5694 5692 5691 5690 5688 5688 5687 5686 5685 5686 5688 5690 5693 5697 5699 5700 5700 5698 5699 5701 5702 5704 5706 5707 5711 5715 5717 5723 5726 5727 5733 5738 5743 5748 5751 5755 5759 5762 5765 5765 5770 5780 5784 5786 5792 5795 5796 5798 5797 5798 5801 5803 5804 5805 5805 5807 5809 5811 5813 5817 5821 5823 5824 5824 5826 5828 5829 5830 5831
5715 5714 5713 5712 5710 5709 5708 5706 5705 5703 5702 5700 5698 5696 5694 5692 5690 5688 5686 5685 5683 5681 5680 5678 5678 5676 5675 5676 5676 5678 5680 5683 5686 5686 5688 5688 5686 5688 5691 5694 5695 5696 5698 5702 5706 5710 5714 5718 5721 5724 5729 5736 5740 5742 5749 5755 5757 5758 5761 5769 5776 5778 5782 5788 5790 5791 5792 5792 5794 5797 5799 5801 5802 5802 5804 5806 5808 5813 5817 5818 5819 5819 5821 5823 5825 5826 5828 5829
5711 5710 5709 5707 5706 5704 5703 5701 5700 5698 5696 5694 5692 5689 5687 5685 5682 5679 5677 5675 5672 5670 5668 5667 5665 5664 5665 5664 5664 5668 5668 5672 5675 5673 5675 5673 5673 5677 5679 5684 5686 5687 5690 5693 5698 5702 5705 5710 5713 5716 5721 5728 5732 5736 5744 5749 5750 5751 5758 5765 5768 5771 5777 5782 5784 5786 5787 5788 5790 5793 5795 5797 5799 5799 5800 5802 5806 5812 5813 5813 5813 5815 5817 5819 5822 5824 5826 5827
5707 5706 5704 5703 5701 5700 5698 5696 5695 5692 5690 5688 5685 5682 5680 5677 5674 5671 5668 5665 5662 5659 5656 5654 5651 5651 5651 5650 5651 5653 5656 5664 5664 5658 5659 5655 5658 5666 5668 5672 5676 5679 5681 5683 5688 5693 5697 5701 5705 5710 5713 5718 5724 5731 5737 5740 5742 5746 5752 5759 5762 5766 5771 5776 5779 5780 5781 5783 5786 5788 5790 5792 5795 5795 5795 5799 5804 5808 5809 5809 5810 5811 5813 5816 5820 5822 5823 5824
5703 5702 5700 5699 5697 5695 5693 5691 5689 5687 5684 5681 5678 5675 5672 5669 5665 5662 5658 5655 5651 5647 5644 5640 5637 5636 5635 5635 5635 5639 5647 5650 5646 5643 5641 5640 5646 5654 5657 5660 5663 5669 5671 5673 5679 5683 5688 5692 5697 5703 5704 5710 5718 5724 5728 5730 5734 5739 5747 5754 5756 5760 5765 5770 5772 5774 5777 5779 5782 5783 5785 5788 5790 5791 5792 5796 5801 5803 5805 5806 5807 5808 5810 5814 5817 5819 5820 5822
5699 5698 5696 5695 5693 5691 5689 5686 5684 5681 5678 5675 5671 5668 5664 5660 5656 5652 5648 5644 5639 5635 5631 5627 5624 5622 5620 5620 5619 5627 5633 5627 5629 5631 5624 5626 5634 5638 5645 5648 5651 5658 5661 5664 5669 5673 5678 5684 5691 5694 5695 5703 5709 5714 5718 5720 5726 5734 5743 5747 5748 5752 5757 5762 5765 5768 5771 5774 5777 5779 5781 5784 5785 5786 5789 5794 5798 5800 5802 5803 5804 5806 5808 5811 5814 5815 5817 5819
5696 5694 5692 5691 5689 5686 5684 5682 5679 5676 5672 5668 5664 5660 5656 5651 5646 5642 5637 5632 5627 5622 5618 5613 5611 5608 5606 5606 5605 5612 5613 5609 5615 5614 5606 5613 5621 5626 5633 5637 5641 5648 5650 5655 5660 5664 5670 5677 5682 5683 5686 5693 5697 5704 5710 5711 5720 5729 5735 5738 5739 5744 5749 5753 5759 5763 5765 5768 5771 5773 5777 5781 5780 5781 5785 5791 5794 5795 5798 5800 5802 5803 5805 5808 5810 5811 5814 5816
5692 5690 5688 5687 5684 5682 5680 5677 5674 5670 5666 5662 5657 5652 5647 5642 5637 5632 5626 5621 5615 5610 5606 5602 5599 5596 5594 5594 5595 5596 5596 5596 5598 5595 5597 5605 5609 5615 5621 5625 5632 5636 5640 5646 5650 5656 5662 5668 5672 5672 5677 5684 5689 5697 5701 5705 5715 5721 5725 5728 5730 5735 5740 5745 5752 5757 5758 5761 5766 5768 5772 5774 5773 5775 5782 5788 5788 5790 5794 5795 5797 5799 5802 5804 5805 5808 5810 5812
5688 5686 5685 5683 5680 5678 5675 5672 5669 5665 5660 5656 5651 5645 5640 5634 5628 5623 5616 5610 5605 5600 5596 5592 5590 5587 5585 5586 5586 5584 5583 5584 5583 5585 5592 5594 5597 5605 5609 5615 5621 5625 5630 5636 5641 5647 5652 5658 5661 5663 5670 5677 5682 5688 5691 5698 5707 5712 5716 5718 5723 5729 5732 5738 5747 5752 5753 5756 5761 5763 5762 5762 5765 5772 5780 5784 5783 5785 5788 5790 5792 5794 5798 5800 5802 5804 5807 5809
5685 5683 5681 5679 5676 5674 5671 5667 5663 5659 5655 5650 5644 5639 5632 5627 5621 5614 5608 5602 5597 5592 5588 5586 5584 5581 5580 5581 5579 5575 5573 5574 5575 5578 5581 5582 5587 5594 5599 5605 5611 5615 5621 5627 5633 5638 5643 5648 5651 5656 5663 5667 5674 5679 5683 5692 5698 5704 5708 5709 5716 5720 5724 5735 5743 5746 5747 5750 5755 5753 5749 5754 5763 5770 5775 5777 5777 5779 5782 5786 5788 5790 5794 5796 5798 5801 5803 5805
5681 5679 5677 5675 5672 5669 5666 5662 5658 5654 5649 5644 5639 5633 5626 5620 5614 5607 5601 5595 5591 5587 5584 5581 5579 5577 5575 5576 5573 5569 5568 5568 5568 5570 5571 5574 5579 5585 5591 5597 5602 5607 5613 5620 5626 5631 5636 5640 5642 5648 5653 5658 5668 5673 5677 5685 5689 5695 5700 5701 5705 5709 5719 5733 5737 5739 5742 5745 5749 5745 5743 5751 5761 5765 5770 5772 5773 5775 5777 5781 5784 5786 5790 5792 5794 5797 5799 5801
5678 5676 5674 5671 5668 5665 5662 5658 5654 5649 5644 5639 5634 5628 5621 5614 5608 5602 5595 5590 5586 5583 5581 5578 5575 5573 5572 5572 5569 5565 5564 5563 5563 5564 5565 5568 5572 5578 5585 5588 5594 5599 5605 5613 5619 5624 5630 5631 5634 5641 5646 5654 5662 5664 5669 5675 5680 5686 5689 5691 5695 5704 5718 5728 5728 5732 5738 5742 5743 5739 5739 5748 5756 5760 5765 5767 5768 5769 5771 5775 5780 5782 5785 5788 5790 5792 5795 5797
5675 5673 5670 5668 5664 5661 5658 5654 5650 5645 5640 5635 5629 5623 5617 5610 5603 5597 5592 5587 5583 5580 5578 5575 5572 5570 5570 5568 5565 5562 5560 5560 5559 5559 5561 5563 5566 5572 5576 5579 5586 5593 5599 5607 5612 5618 5623 5623 5627 5634 5640 5648 5652 5656 5663 5666 5670 5676 5679 5684 5692 5701 5713 5719 5721 5727 5734 5737 5736 5734 5737 5745 5751 5756 5760 5761 5762 5764 5765 5770 5774 5777 5780 5783 5785 5788 5791 5793
5672 5669 5667 5664 5661 5657 5654 5650 5646 5642 5637 5632 5626 5619 5613 5607 5600 5594 5590 5585 5580 5578 5575 5572 5570 5569 5567 5564 5562 5560 5558 5557 5557 5557 5557 5558 5561 5565 5568 5573 5580 5587 5593 5600 5604 5611 5616 5617 5621 5626 5632 5638 5643 5649 5652 5653 5660 5668 5674 5681 5689 5697 5706 5713 5717 5723 5728 5729 5728 5730 5734 5739 5745 5750 5754 5755 5758 5760 5760 5764 5770 5774 5777 5779 5781 5783 5787 5790
5669 5666 5664 5660 5657 5654 5650 5647 5643 5639 5634 5628 5622 5616 5610 5604 5598 5593 5588 5583 5578 5574 5572 5570 5568 5567 5565 5561 5560 5559 5556 5555 5555 5555 5554 5555 5557 5560 5563 5568 5574 5581 5587 5592 5598 5604 5609 5613 5616 5619 5624 5630 5635 5638 5639 5648 5660 5667 5672 5679 5686 5692 5698 5706 5711 5717 5722 5721 5721 5724 5727 5733 5738 5741 5745 5749 5752 5755 5756 5759 5765 5770 5772 5774 5776 5778 5782 5785
5666 5663 5660 5657 5654 5651 5647 5644 5640 5636 5631 5625 5619 5613 5607 5602 5596 5592 5588 5584 5578 5572 5569 5567 5566 5565 5562 5559 5558 5557 5555 5553 5553 5552 5552 5553 5555 5557 5560 5564 5568 5576 5581 5586 5594 5599 5603 5609 5611 5611 5616 5624 5630 5633 5639 5653 5662 5665 5669 5675 5680 5684 5690 5697 5700 5706 5711 5710 5711 5715 5720 5727 5731 5733 5738 5742 5745 5749 5751 5754 5758 5763 5766 5769 5771 5773 5776 5779
5663 5660 5657 5654 5651 5648 5645 5641 5637 5633 5628 5623 5617 5611 5606 5601 5598 5594 5591 5586 5577 5570 5568 5565 5564 5562 5559 5557 5556 5554 5553 5551 5550 5550 5549 5550 5552 5554 5557 5561 5565 5570 5575 5581 5589 5595 5598 5601 5604 5609 5615 5623 5630 5634 5641 5651 5655 5657 5660 5664 5669 5674 5681 5687 5690 5696 5701 5700 5702 5709 5716 5722 5725 5727 5731 5735 5739 5742 5745 5748 5751 5756 5760 5763 5766 5768 5770 5774
5660 5657 5655 5652 5649 5645 5642 5638 5635 5631 5626 5621 5616 5610 5605 5599 5595 5591 5589 5585 5576 5570 5568 5564 5561 5560 5557 5556 5553 5552 5551 5549 5547 5547 5547 5548 5549 5551 5554 5558 5561 5565 5572 5579 5583 5589 5592 5594 5600 5608 5614 5620 5624 5628 5635 5641 5645 5649 5651 5655 5661 5667 5674 5680 5682 5688 5694 5693 5697 5704 5709 5714 5719 5721 5723 5727 5732 5735 5740 5744 5747 5751 5755 5758 5761 5763 5766 5770
5657 5655 5652 5649 5646 5643 5640 5636 5632 5628 5623 5619 5613 5608 5602 5596 5591 5586 5582 5581 5575 5569 5567 5563 5561 5559 5556 5554 5552 5550 5549 5547 5545 5545 5546 5547 5547 5549 5551 5554 5557 5562 5570 5574 5577 5583 5585 5590 5599 5606 5610 5614 5618 5620 5624 5630 5636 5642 5645 5649 5655 5661 5668 5673 5676 5681 5685 5686 5691 5696 5699 5705 5712 5714 5716 5719 5724 5730 5736 5739 5742 5747 5751 5754 5756 5758 5761 5764
5655 5652 5649 5646 5644 5641 5638 5634 5630 5626 5621 5616 5611 5606 5600 5594 5589 5584 5579 5576 5572 5569 5566 5563 5561 5558 5556 5553 5551 5549 5548 5546 5545 5544 5545 5545 5546 5548 5549 5552 5555 5560 5565 5568 5574 5578 5582 5591 5600 5602 5604 5610 5615 5616 5618 5622 5627 5632 5637 5641 5648 5656 5662 5666 5671 5676 5677 5679 5683 5688 5690 5696 5703 5704 5706 5710 5716 5724 5729 5733 5737 5740 5745 5749 5752 5754 5756 5758
5653 5650 5647 5644 5642 5639 5635 5632 5628 5624 5619 5615 5610 5604 5599 5594 5588 5583 5579 5575 5571 5568 5565 5562 5560 5558 5556 5553 5551 5549 5547 5546 5545 5544 5545 5545 5545 5547 5549 5551 5553 5558 5562 5567 5572 5575 5582 5591 5596 5597 5600 5606 5612 5614 5615 5618 5622 5626 5630 5635 5643 5652 5655 5659 5666 5668 5669 5672 5677 5682 5681 5683 5689 5692 5696 5703 5709 5716 5722 5727 5731 5734 5738 5743 5745 5748 5751 5753
5651 5648 5646 5643 5640 5637 5634 5630 5626 5622 5618 5613 5608 5603 5598 5593 5587 5582 5578 5574 5569 5566 5563 5561 5559 5557 5556 5553 5551 5549 5546 5545 5544 5544 5544 5544 5546 5547 5549 5551 5554 5557 5560 5566 5569 5573 5581 5588 5590 5594 5597 5602 5607 5609 5612 5615 5619 5623 5626 5632 5640 5645 5648 5653 5657 5659 5662 5663 5670 5677 5671 5672 5683 5685 5689 5698 5703 5709 5716 5720 5724 5728 5732 5736 5739 5743 5747 5750
5649 5647 5644 5641 5638 5635 5632 5629 5625 5621 5617 5612 5607 5602 5597 5592 5587 5582 5578 5574 5569 5565 5562 5560 5559 5557 5555 5553 5552 5550 5548 5545 5544 5543 5543 5544 5545 5547 5549 5551 5554 5557 5561 5565 5568 5571 5579 5583 5586 5591 5594 5599 5602 5605 5610 5613 5615 5618 5624 5632 5636 5638 5642 5646 5649 5651 5653 5656 5664 5669 5660 5664 5676 5678 5683 5692 5696 5702 5709 5712 5717 5722 5727 5730 5734 5739 5743 5746
5647 5645 5643 5640 5637 5634 5630 5627 5624 5620 5615 5611 5606 5601 5596 5591 5587 5582 5578 5573 5569 5565 5562 5560 5559 5557 5554 5553 5552 5551 5549 5546 5545 5544 5544 5543 5544 5546 5548 5550 5553 5557 5561 5565 5567 5571 5576 5580 5583 5588 5591 5594 5597 5603 5609 5611 5610 5615 5624 5628 5629 5632 5636 5640 5642 5642 5645 5651 5656 5657 5654 5657 5665 5670 5679 5686 5688 5693 5699 5704 5710 5716 5721 5726 5730 5734 5738 5741
5646 5643 5641 5638 5635 5632 5629 5625 5622 5618 5614 5610 5605 5601 5596 5591 5587 5582 5577 5573 5568 5564 5562 5560 5558 5556 5554 5553 5552 5552 5550 5548 5547 5545 5545 5544 5544 5546 5548 5550 5552 5556 5558 5561 5564 5569 5574 5578 5581 5584 5587 5591 5596 5603 5607 5607 5606 5612 5619 5619 5622 5628 5630 5634 5635 5635 5641 5644 5642 5646 5651 5650 5652 5663 5674 5677 5679 5684 5691 5700 5707 5712 5717 5722 5726 5729 5733 5736
5644 5642 5639 5637 5634 5631 5628 5624 5621 5617 5613 5609 5605 5600 5596 5592 5587 5582 5578 5573 5568 5564 5561 5560 5559 5557 5555 5553 5552 5552 5550 5549 5547 5546 5545 5545 5546 5547 5548 5550 5552 5554 5556 5558 5562 5566 5570 5575 5577 5580 5584 5589 5595 5600 5602 5602 5603 5609 5613 5615 5620 5623 5623 5627 5627 5630 5636 5630 5628 5640 5647 5644 5644 5655 5665 5667 5670 5677 5687 5697 5704 5709 5713 5716 5720 5723 5726 5730
5642 5640 5638 5635 5632 5629 5627 5623 5620 5616 5613 5609 5604 5600 5596 5591 5587 5582 5578 5574 5569 5565 5562 5560 5559 5557 5556 5554 5553 5552 5551 5550 5548 5546 5545 5546 5547 5548 5548 5549 5551 5553 5555 5557 5560 5562 5566 5570 5572 5577 5582 5587 5592 5596 5598 5600 5601 5605 5609 5612 5617 5617 5618 5621 5621 5626 5625 5614 5620 5635 5641 5641 5638 5645 5656 5659 5665 5675 5685 5693 5699 5704 5706 5708 5712 5715 5718 5723
5641 5639 5636 5634 5631 5628 5625 5622 5619 5616 5612 5608 5604 5600 5596 5591 5587 5582 5578 5573 5570 5567 5563 5561 5559 5557 5556 5555 5554 5553 5552 5551 5549 5548 5547 5546 5547 5548 5549 5550 5551 5552 5554 5556 5557 5560 5564 5567 5570 5575 5579 5584 5589 5591 5594 5597 5599 5602 5605 5608 5611 5611 5613 5615 5617 5619 5612 5607 5620 5633 5638 5636 5629 5636 5651 5656 5662 5673 5678 5684 5692 5697 5699 5702 5706 5709 5713 5716
5639 5637 5635 5632 5629 5627 5624 5621 5618 5615 5611 5608 5604 5600 5596 5591 5587 5583 5579 5574 5571 5568 5565 5562 5560 5558 5556 5554 5553 5553 5552 5551 5550 5549 5548 5547 5548 5549 5549 5549 5550 5551 5552 5554 5556 5559 5563 5565 5569 5572 5576 5582 5586 5587 5590 5594 5596 5599 5602 5604 5605 5606 5608 5608 5609 5610 5605 5609 5621 5628 5632 5627 5621 5633 5647 5651 5658 5666 5671 5678 5684 5688 5691 5695 5698 5702 5705 5708
5638 5635 5633 5631 5628 5625 5623 5620 5617 5614 5610 5607 5603 5599 5595 5591 5587 5584 5580 5576 5572 5568 5565 5562 5559 5557 5556 5554 5553 5553 5552 5551 5551 5550 5548 5548 5548 5549 5549 5549 5549 5550 5552 5553 5556 5559 5562 5564 5568 5571 5575 5580 5583 5585 5588 5590 5593 5596 5598 5601 5600 5602 5603 5601 5604 5606 5605 5611 5617 5622 5623 5617 5618 5631 5640 5646 5655 5660 5663 5668 5673 5678 5683 5687 5690 5693 5695 5699
5636 5634 5631 5629 5627 5624 5621 5619 5616 5613 5610 5606 5603 5599 5595 5591 5588 5584 5580 5577 5573 5569 5565 5563 5560 5558 5556 5555 5554 5553 5552 5552 5551 5550 5549 5548 5548 5548 5549 5549 5550 5551 5552 5554 5555 5558 5560 5563 5567 5569 5573 5577 5579 5582 5584 5584 5587 5591 5594 5596 5596 5598 5599 5599 5602 5603 5606 5612 5615 5616 5613 5608 5614 5627 5635 5644 5650 5651 5655 5659 5665 5672 5677 5680 5682 5684 5686 5690
5634 5632 5630 5628 5625 5623 5620 5617 5615 5612 5609 5606 5603 5599 5595 5592 5588 5584 5581 5578 5574 5571 5567 5564 5562 5559 5556 5555 5554 5553 5552 5552 5551 5551 5550 5549 5548 5548 5549 5549 5549 5550 5552 5553 5554 5556 5559 5561 5564 5566 5569 5573 5575 5576 5577 5578 5582 5587 5589 5589 5592 5595 5596 5597 5600 5601 5605 5608 5606 5606 5604 5604 5615 5627 5633 5637 5639 5644 5649 5653 5658 5663 5667 5672 5674 5676 5679 5682
5632 5630 5628 5626 5624 5621 5618 5616 5613 5611 5608 5605 5602 5599 5596 5593 5589 5585 5582 5578 5575 5572 5569 5566 5563 5561 5558 5556 5554 5553 5552 5552 5551 5551 5550 5549 5549 5548 5549 5548 5549 5550 5551 5552 5553 5555 5557 5559 5561 5564 5567 5569 5570 5571 5574 5577 5580 5584 5585 5586 5590 5593 5593 5594 5595 5598 5600 5597 5595 5599 5600 5605 5615 5619 5624 5629 5631 5638 5644 5645 5649 5653 5659 5664 5666 5670 5673 5674
5631 5629 5627 5624 5622 5620 5617 5615 5612 5609 5607 5604 5601 5598 5596 5593 5590 5586 5583 5579 5576 5573 5570 5567 5564 5562 5560 5557 5555 5554 5552 5552 5551 5551 5550 5549 5549 5549 5549 5549 5549 5550 5550 5551 5552 5553 5555 5557 5559 5562 5563 5564 5566 5568 5571 5576 5578 5580 5582 5584 5587 5588 5588 5590 5591 5592 5594 5590 5590 5595 5598 5604 5608 5608 5616 5626 5626 5630 5636 5639 5642 5646 5651 5655 5659 5663 5666 5669
5629 5627 5625 5623 5621 5618 5616 5613 5611 5608 5606 5603 5600 5598 5595 5592 5590 5587 5583 5579 5576 5573 5570 5568 5565 5563 5560 5558 5556 5554 5553 5552 5551 5550 5549 5549 5550 5549 5549 5549 5549 5549 5549 5550 5551 5552 5553 5556 5558 5560 5561 5561 5563 5565 5569 5573 5574 5576 5579 5581 5582 5583 5585 5587 5586 5587 5589 5586 5587 5591 5593 5596 5600 5603 5613 5621 5622 5625 5631 5635 5636 5638 5642 5645 5650 5654 5658 5661
5627 5625 5623 5621 5619 5617 5614 5612 5610 5607 5604 5602 5600 5597 5594 5592 5589 5586 5584 5580 5577 5574 5571 5569 5566 5563 5561 5559 5557 5555 5553 5552 5551 5550 5549 5549 5549 5549 5549 5549 5549 5549 5549 5550 5550 5550 5552 5554 5557 5559 5558 5558 5561 5564 5566 5568 5568 5571 5574 5576 5578 5579 5580 5582 5582 5584 5586 5584 5585 5588 5588 5589 5595 5603 5609 5614 5618 5622 5624 5626 5628 5629 5633 5636 5638 5642 5647 5650
5626 5624 5622 5620 5617 5615 5613 5611 5609 5606 5603 5601 5599 5596 5594 5591 5588 5586 5583 5580 5577 5574 5571 5569 5567 5564 5562 5560 5558 5556 5554 5552 5551 5550 5549 5549 5549 5548 5548 5548 5548 5548 5549 5549 5549 5549 5550 5552 5555 5557 5557 5557 5560 5561 5563 5564 5564 5567 5569 5571 5572 5573 5575 5576 5576 5579 5581 5580 5581 5583 5583 5585 5592 5598 5603 5606 5611 5613 5615 5616 5618 5620 5624 5627 5628 5631 5636 5640
5624 5622 5620 5618 5616 5614 5612 5609 5607 5605 5603 5600 5598 5595 5592 5590 5588 5585 5583 5580 5577 5575 5572 5569 5567 5565 5563 5561 5559 5557 5555 5552 5551 5550 5549 5548 5548 5547 5547 5547 5548 5548 5548 5548 5548 5548 5549 5550 5552 5554 5555 5557 5558 5558 5560 5561 5561 5563 5565 5565 5566 5568 5570 5570 5569 5573 5576 5574 5576 5577 5576 5581 5587 5590 5594 5599 5601 5602 5604 5605 5608 5613 5616 5618 5620 5622 5624 5629
5623 5621 5619 5617 5614 5612 5610 5608 5606 5604 5601 5599 5597 5594 5591 5589 5587 5584 5582 5580 5577 5575 5572 5569 5567 5565 5563 5561 5559 5558 5556 5554 5552 5550 5549 5548 5547 5546 5547 5547 5547 5548 5548 5548 5548 5547 5547 5548 5550 5552 5553 5555 5556 5556 5557 5558 5559 5560 5561 5562 5563 5563 5565 5565 5565 5569 5569 5567 5570 5570 5567 5575 5584 5585 5586 5589 5591 5592 5594 5595 5599 5604 5606 5607 5609 5610 5612 5616
5621 5619 5617 5615 5613 5611 5609 5606 5605 5603 5600 5598 5595 5593 5591 5588 5586 5584 5581 5579 5577 5575 5572 5569 5567 5565 5563 5561 5560 5558 5557 5555 5553 5551 5549 5548 5546 5546 5546 5546 5546 5546 5546 5546 5547 5546 5545 5546 5547 5549 5551 5552 5553 5554 5555 5555 5555 5556 5557 5559 5559 5559 5560 5560 5560 5562 5561 5560 5564 5562 5560 5569 5579 5579 5579 5582 5584 5586 5587 5589 5591 5593 5595 5598 5599 5601 5604 5607
5619 5617 5615 5613 5611 5609 5607 5605 5603 5601 5599 5597 5594 5592 5590 5587 5585 5583 5580 5578 5576 5574 5572 5569 5567 5565 5563 5561 5559 5558 5556 5555 5554 5552 5550 5548 5547 5545 5544 5544 5544 5544 5544 5544 5544 5544 5544 5544 5545 5546 5548 5549 5550 5551 5552 5551 5551 5550 5552 5553 5553 5554 5554 5553 5554 5556 5554 5554 5557 5555 5553 5563 5572 5573 5575 5578 5579 5580 5581 5582 5584 5585 5588 5591 5593 5596 5598 5601
5618 5616 5614 5612 5610 5608 5606 5603 5601 5599 5597 5595 5593 5590 5588 5585 5583 5581 5579 5577 5575 5573 5571 5569 5567 5564 5562 5560 5559 5557 5555 5554 5554 5552 5551 5549 5548 5546 5544 5543 5542 5542 5541 5541 5541 5542 5542 5543 5543 5543 5544 5545 5547 5548 5546 5545 5544 5544 5546 5548 5548 5549 5549 5547 5548 5548 5546 5549 5553 5548 5547 5557 5566 5569 5571 5573 5573 5574 5576 5577 5580 5581 5581 5584 5586 5589 5591 5594
5616 5614 5612 5610 5608 5606 5604 5602 5599 5597 5596 5593 5591 5589 5587 5584 5581 5579 5577 5575 5573 5571 5570 5568 5566 5564 5561 5560 5558 5556 5554 5553 5552 5551 5551 5549 5548 5546 5544 5543 5541 5540 5539 5539 5538 5539 5539 5540 5541 5540 5540 5541 5543 5544 5543 5541 5540 5541 5543 5544 5543 5543 5543 5541 5539 5539 5541 5543 5543 5542 5545 5552 5561 5566 5566 5566 5567 5570 5572 5573 5575 5576 5577 5578 5580 5581 5584 5588
5614 5612 5610 5608 5606 5604 5602 5600 5598 5596 5594 5592 5589 5587 5585 5583 5580 5577 5575 5573 5571 5569 5568 5566 5564 5562 5560 5558 5557 5555 5554 5553 5551 5550 5549 5548 5547 5546 5544 5542 5540 5539 5538 5537 5536 5536 5535 5536 5537 5536 5537 5538 5539 5540 5540 5537 5536 5538 5538 5538 5539 5538 5536 5534 5532 5535 5539 5534 5532 5541 5546 5546 5554 5562 5560 5560 5563 5565 5567 5569 5569 5570 5572 5574 5575 5576 5578 5580
5613 5611 5608 5606 5604 5602 5600 5598 5595 5594 5592 5590 5588 5586 5583 5582 5579 5576 5574 5572 5569 5568 5566 5564 5562 5560 5558 5557 5556 5554 5553 5552 5551 5549 5547 5546 5546 5545 5543 5541 5539 5537 5536 5535 5534 5533 5531 5531 5533 5533 5532 5533 5534 5535 5535 5533 5532 5533 5532 5532 5534 5533 5531 5529 5529 5533 5534 5527 5528 5540 5543 5539 5547 5556 5556 5557 5559 5559 5561 5562 5563 5564 5566 5568 5569 5570 5572 5575
5611 5609 5607 5604 5602 5600 5598 5596 5593 5591 5590 5588 5586 5584 5581 5579 5577 5575 5572 5570 5567 5565 5564 5563 5561 5559 5557 5554 5553 5552 5550 5549 5549 5547 5545 5545 5544 5543 5542 5541 5538 5536 5535 5533 5532 5530 5528 5528 5530 5528 5526 5527 5529 5530 5529 5528 5526 5526 5526 5527 5527 5528 5527 5527 5527 5530 5530 5525 5527 5535 5534 5532 5540 5547 5551 5555 5555 5553 5554 5555 5556 5558 5559 5561 5562 5563 5566 5570
5608 5606 5604 5602 5600 5598 5596 5594 5591 5589 5587 5585 5583 5581 5579 5576 5575 5572 5570 5568 5566 5563 5562 5561 5559 5557 5555 5552 5551 5550 5548 5546 5545 5544 5543 5542 5542 5540 5539 5539 5537 5535 5533 5531 5530 5528 5525 5525 5525 5523 5521 5522 5524 5525 5524 5522 5520 5520 5521 5523 5523 5524 5525 5524 5525 5525 5523 5520 5522 5525 5522 5523 5534 5542 5547 5550 5549 5545 5546 5548 5550 5552 5553 5554 5554 5555 5559 5562
5606 5604 5602 5600 5598 5596 5593 5591 5589 5586 5585 5583 5580 5579 5576 5574 5572 5569 5567 5565 5563 5561 5560 5558 5557 5555 5553 5550 5549 5547 5545 5543 5542 5541 5539 5538 5538 5537 5536 5535 5534 5533 5532 5530 5527 5525 5523 5522 5522 5519 5516 5517 5520 5520 5519 5518 5516 5514 5513 5516 5520 5521 5520 5519 5518 5517 5515 5515 5517 5517 5514 5520 5532 5538 5538 5540 5541 5539 5539 5541 5543 5544 5545 5545 5545 5547 5550 5553
5603 5601 5599 5597 5595 5593 5591 5588 5586 5583 5581 5580 5578 5575 5573 5571 5569 5566 5564 5562 5560 5558 5557 5555 5554 5553 5551 5548 5546 5545 5543 5541 5539 5538 5536 5534 5533 5532 5532 5531 5530 5529 5528 5526 5523 5522 5520 5518 5517 5515 5511 5512 5516 5515 5513 5512 5510 5507 5506 5510 5513 5512 5510 5509 5509 5510 5512 5512 5510 5509 5511 5517 5525 5528 5527 5530 5533 5532 5531 5532 5533 5535 5536 5537 5538 5540 5542 5543